Погода в Шымкенте

Погода в Шымкенте : погода сейчас, прогноз погоды и архив. Всё, что Вы хотите узнать о погоде в Шымкенте!

Поиск расширенной информации на нашем сайте:

Другие новости

Новости СМИ2

Главная страница сайта

Новости сайта

03.07.2017

Напоминаем, что на нашем специализированном сайте Метеоцентр.Азия вы можете получить высокодетализированные автоматические прогнозы погоды по пунктам России, СНГ и мира в авиационном формате (включающие направление и скорость ветра, видимость, явления погоды, количество и форму облачности, нижнюю и верхнюю границу облачности).


Погода в Шымкенте - сегодня

Время (UTC), дата Ветер
(°,м/с) 
Видим.   Явления Облачность Т
(°С)
Тd
(°С)
f(%) Тe
(°С)
Pmin
(гПа)
dP
(гПа)
Po
(мм)
O2
(г/м3)
Тmin Tmax R s Состояние
почвы
00 15.04.18 210 (ЮЗ) н/о    9/8 600 м кучево-дожд., верхняя 
[Cb cap|Ci ing]
+16.1 +3.8 44 +17  1007.7  0.8  704  267           
03 15.04.18 240 (ЮЗ) 20000 м  {ливн. осадки}  10/10 600 м кучево-дожд. 
[Cb cap]
+16.1 +4.6 46 +17  1010  2.2  706  268      0.0     
09 15.04.18 270 (З) 20000 м  слаб. ливневой дождь  10/10 600 м кучево-дожд. 
[Cb cap]
+17.5 +8.8 57 +19  1011.2  0.1  707  266           
21 15.04.18 180 (Ю) н/о  слаб. ливневой дождь  10/10 600 м кучево-дожд. 
[Cb cap]
+11 +11 100 +16  1015.8  0.5  709  272           
03 16.04.18 250 (З) 2000 м  дымка  10/8 600 м кучево-дожд., средняя 
[Cb cap|Ac trans]
+11.5 +10.3 92 +15  1018.7  1.8  711  273         
09 16.04.18 190 (Ю) 20000 м    8/4 600 м средняя, верхняя 
[Sc|Ac trans|Ci ing]
+17.9 +8 52 +18  1018  -0.6  712  268           
12 16.04.18 250 (З) 20000 м    4/4 600 м кучево-дожд. 
[Cb cap]
+18.6 +6.5 45 +20  1017.1  -0.7  711  267           
15 16.04.18 тихо ()   н/о    8/8 600 м кучево-дожд. 
[Cb cap]
+14.1 +7.7 65 +14  1018  -0.2  711  271    +18       
18 16.04.18 130 (ЮВ) н/о    8/4 600 м средняя 
[Sc|Ac trans]
+10.8 +8.4 85 +12  1018.1  -0.7  711  274    +18.8       
03 17.04.18 тихо ()   20000 м    9/9 600 м кучево-дожд. 
[Cb cap]
+13.1 +9.8 80 +15  1014.8  0.1  709  271  +9.5        влажная 
06 17.04.18 270 (З) 20000 м    10/8 600 м кучево-дожд., средняя 
[Cb cap|Ac trans]
+18.2 +7.1 48 +20  1013.2  -0.4  708  266  +9.5         
09 17.04.18 280 (З) 20000 м  в посл. час ливневой дождь  10/10 600 м кучево-дожд. 
[Cb cap]
+13.3 +9.2 76 +14  1014.7  0.3  709  271           
21 17.04.18 200 (Ю) н/о  слаб. ливневой дождь  10/10 600 м кучево-дожд. 
[Cb cap]
+5.1 +5.1 100 +4  1024.4  0.4  714  281           
03 18.04.18 270 (З) 2000 м  в посл. час ливневой дождь  10/10 600 м кучево-дожд. 
[Cb cap]
+4.8 +4.8 100 +6  1027.3  1.6  716  283         
09 18.04.18 280 (З) 20000 м    8/8 600 м кучево-дожд. 
[Cb cap]
+10.8 +3 59 +11  1025.3  -1.2  716  277           
12 18.04.18 320 (СЗ) 20000 м    9/9 600 м кучево-дожд. 
[Cb cap]
+10.7 +2.5 57 +12  1025  -0.4  715  277           
15 18.04.18 340 (С) н/о    8/5 600 м кучево-дожд., средняя 
[Cb cap|Ac trans]
+8.4 +3.2 70 +9  1026.1  0.5  716  279    +11.9       
18 18.04.18 350 (С) н/о    3/0 средняя 
[Ac trans]
+5.3 +4.8 97 +6  1026.2  -0.7  715  282    +11.9       
21 18.04.18 тихо ()   н/о  дымка  6/0 средняя 
[Ac trans]
+5.7 +3.6 86 +6  1024.7  -1.2  714  281           
06 19.04.18 тихо ()   20000 м    4/4 600 м 
[Cu med, cong]
+12.8 +2.9 51 +13  1021.6  -0.2  713  274  +3.9         
09 19.04.18 290 (З) 20000 м    6/6 600 м кучево-дожд. 
[Cb cap]
+13.7 +2.1 45 +14  1020  -1.4  712  273           
12 19.04.18 140 (ЮВ) 20000 м    10/10 600 м кучево-дожд. 
[Cb cap]
+11.7 +4.6 62 +11  1020.4  712  274           
15 19.04.18 060 (СВ) н/о    10/10 600 м кучево-дожд. 
[Cb cap]
+10.1 +5.3 72 +11  1020.7  -0.1  712  276    +14.6       
18 19.04.18 060 (СВ) н/о    6/3 600 м средняя 
[Sc|Ac trans]
+7.7 +6.2 90 +9  1021.1  -0.2  712  278    +14.6       
21 19.04.18 090 (В) н/о    ясно 
+5.9 +3 82 +6  1019.9  -1.6  786  310           
Время (UTC), дата Ветер
(°,м/с) 
Видим.   Явления Облачность Т
(°С)
Тd
(°С)
f(%) Тe
(°С)
Pmin
(гПа)
dP
(гПа)
Po
(мм)
O2
(г/м3)
Тmin Tmax R s Состояние
почвы

Для получения пояснительной информации подведите курсор к названию столбца.

ПОГОДА в Шымкенте - архив

Всё, что Вы хотите узнать о погоде в Шымкенте - удобно и подробно!

Выберите нужную дату (начиная с 1 января 2015* года) и нажмите кнопку "Найти".
Будут отображены архивные сводки погоды по пункту Шымкент, начиная с указанной даты.


Отображать данные в формате CSV (для использования в таблицах Excel)


Внимание! Наш архив погоды предназначен исключительно для личного некоммерческого использования в познавательных целях. Если Вам необходимы официальные справки о состоянии погоды (для производственных, юридических, коммерческих и т.п. целей), обращайтесь в органы Росгидромета.

*Примечание: данная дата относится к архиву по метеостанциям СССР (Россия, СНГ, Балтия).
Архив по метеостанциям Зарубежной Европы и Азии (кроме Китая) хранится 10 дней, по другим регионам земного шара (Китай, Африка, Америка, Австралия, Океания) - 1 день.

Шымкент - район местоположения метеостанции


Название, широта, долгота, высота метеостанции:
Шымкент (город) 42.3°ш. 69.7°д. 604 м над ур. моря [Казахстан]

Дополнительная информация

В oтличие oт бoльшинства пoгoдных сайтoв мы публикуем пoдрoбную метеoинфoрмацию в детальнoм прoфессиoнальнoм фoрмате.

Характеристики температуры и влажнoсти вoздуха измеряются на высoте 2 м в тени вдали oт зданий и деревьев.
Скoрoсть ветра измеряется на высoте 10 м (на урoвне рoста челoвека скoрoсть ветра ниже в 1.5-2 раза). Если метеoстанция нахoдится в гoрoде или в лесу, тo скoрoсть ветра занижена на 2-4 м/с пo сравнению с oткрытым местoм. Скoрoсть ветра над акватoриями крупных рек и oзёр, а также на вершинах хoлмoв на 2-5 м/с выше, чем в oбычных услoвиях.
Атмoсфернoе давление в разных тoчках местнoсти мoжет значительнo oтличаться oт давления на метеoстанции, в зависимoсти oт услoвий рельефа (при пoдъёме на 10 м давление пoнижается примернo на 1 мм рт.ст.).